When you browse on this site, cookies collect data to enhance your experience and personalize the content and advertising you see.
Visit our Privacy Policy to learn more. By continuing to use the site, you agree to this use of cookies and data.
  • In Hungary
  • List of Countries
  • For 7 days
  • Water Temperature
  • Weather Map
  • News
  • Weather Widgets
  • user-avatar
    Login

    Hourly Weather Vostok

    Today, 29 January, Wednesday

    Time Temperature Precipitation Wind Pressure Humidity
    00:00 -3°C° 0 mm 2 mps 729 mmHg 97%
    01:00 -3°C° 0 mm 2 mps 729 mmHg 97%
    02:00 -2°C° 0 mm 2 mps 729 mmHg 96%
    03:00 -2°C° 0.1 mm 2 mps 728 mmHg 96%
    04:00 -2°C° 0.1 mm 2 mps 728 mmHg 95%
    05:00 -2°C° 0.1 mm 2 mps 728 mmHg 94%
    06:00 -4°C° 0 mm 3 mps 728 mmHg 95%
    07:00 -4°C° 0 mm 3 mps 728 mmHg 95%
    08:00 -4°C° 0 mm 3 mps 728 mmHg 96%
    09:00 -4°C° 0 mm 3 mps 728 mmHg 92%
    10:00 -2°C° 0 mm 3 mps 727 mmHg 89%
    11:00 -2°C° 0 mm 3 mps 727 mmHg 86%
    12:00 -1°C° 0 mm 3 mps 727 mmHg 86%
    13:00 -1°C° 0 mm 3 mps 727 mmHg 86%
    14:00 -1°C° 0 mm 3 mps 727 mmHg 86%
    15:00 -1°C° 0 mm 3 mps 727 mmHg 89%
    16:00 -1°C° 0 mm 3 mps 726 mmHg 92%
    17:00 -3°C° 0 mm 4 mps 726 mmHg 95%
    18:00 -2°C° 0 mm 4 mps 726 mmHg 95%
    19:00 -2°C° 0 mm 4 mps 726 mmHg 95%
    20:00 -2°C° 0 mm 4 mps 726 mmHg 95%
    21:00 -2°C° 0.1 mm 4 mps 725 mmHg 96%
    22:00 -2°C° 0.1 mm 4 mps 725 mmHg 96%
    23:00 -2°C° 0.1 mm 4 mps 724 mmHg 97%

    Tomorrow, 30 January, Thursday

    Time Temperature Precipitation Wind Pressure Humidity
    00:00 -2°C° 0.1 mm 4 mps 724 mmHg 97%
    01:00 -2°C° 0.1 mm 4 mps 724 mmHg 97%
    02:00 -2°C° 0.1 mm 4 mps 724 mmHg 97%
    03:00 -2°C° 0.1 mm 4 mps 723 mmHg 97%
    04:00 -2°C° 0.1 mm 4 mps 722 mmHg 97%
    05:00 -2°C° 0.1 mm 4 mps 721 mmHg 97%
    06:00 -2°C° 0.1 mm 5 mps 721 mmHg 97%
    07:00 -2°C° 0.1 mm 5 mps 721 mmHg 97%
    08:00 -1°C° 0.1 mm 5 mps 720 mmHg 97%
    09:00 -2°C° 0.5 mm 5 mps 720 mmHg 97%
    10:00 -2°C° 0.5 mm 5 mps 720 mmHg 97%
    11:00 -2°C° 0.5 mm 5 mps 719 mmHg 97%
    12:00 -2°C° 0.4 mm 4 mps 719 mmHg 93%
    13:00 -2°C° 0.4 mm 4 mps 719 mmHg 90%
    14:00 -1°C° 0.4 mm 3 mps 719 mmHg 87%
    15:00 -2°C° 0 mm 3 mps 719 mmHg 89%
    16:00 -2°C° 0 mm 3 mps 719 mmHg 91%
    17:00 -2°C° 0 mm 3 mps 719 mmHg 93%
    18:00 -4°C° 0 mm 3 mps 719 mmHg 93%
    19:00 -4°C° 0 mm 3 mps 719 mmHg 92%
    20:00 -4°C° 0 mm 3 mps 720 mmHg 92%
    21:00 -4°C° 0 mm 3 mps 720 mmHg 92%
    22:00 -3°C° 0 mm 2 mps 720 mmHg 91%
    23:00 -3°C° 0 mm 2 mps 720 mmHg 91%

    Day after tomorrow, 31 January, Friday

    Time Temperature Precipitation Wind Pressure Humidity
    00:00 -3°C° 0 mm 2 mps 720 mmHg 91%
    01:00 -3°C° 0 mm 2 mps 720 mmHg 91%
    02:00 -4°C° 0 mm 2 mps 720 mmHg 91%
    03:00 -4°C° 0 mm 2 mps 720 mmHg 90%
    04:00 -4°C° 0 mm 2 mps 720 mmHg 90%
    05:00 -4°C° 0 mm 2 mps 720 mmHg 90%
    06:00 -4°C° 0 mm 2 mps 721 mmHg 89%
    07:00 -4°C° 0 mm 2 mps 721 mmHg 88%
    08:00 -4°C° 0 mm 2 mps 721 mmHg 88%
    09:00 -1°C° 0 mm 1 mps 722 mmHg 86%
    10:00 -1°C° 0 mm 1 mps 722 mmHg 84%
    11:00 -1°C° 0 mm 1 mps 722 mmHg 81%
    12:00 0°C° 0 mm 1 mps 722 mmHg 81%
    13:00 0°C° 0 mm 1 mps 723 mmHg 80%
    14:00 0°C° 0 mm 1 mps 723 mmHg 80%
    15:00 0°C° 0 mm 1 mps 723 mmHg 84%
    16:00 -2°C° 0 mm 0 mps 723 mmHg 88%
    17:00 -2°C° 0 mm 0 mps 724 mmHg 92%
    18:00 -2°C° 0.1 mm 0 mps 724 mmHg 93%
    19:00 -2°C° 0.1 mm 0 mps 725 mmHg 94%
    20:00 -3°C° 0.1 mm 0 mps 725 mmHg 95%
    21:00 -3°C° 0.1 mm 0 mps 725 mmHg 95%
    22:00 -2°C° 0.1 mm 1 mps 725 mmHg 95%
    23:00 -2°C° 0.1 mm 1 mps 725 mmHg 95%

    1 February, Saturday

    Time Temperature Precipitation Wind Pressure Humidity
    00:00 -2°C° 0 mm 1 mps 726 mmHg 95%
    01:00 -2°C° 0 mm 1 mps 726 mmHg 95%
    02:00 -2°C° 0 mm 1 mps 727 mmHg 95%
    03:00 -2°C° 0 mm 1 mps 727 mmHg 95%
    04:00 -2°C° 0 mm 1 mps 727 mmHg 95%
    05:00 -2°C° 0 mm 1 mps 727 mmHg 96%
    06:00 -2°C° 0 mm 1 mps 728 mmHg 95%
    07:00 -2°C° 0 mm 1 mps 728 mmHg 95%
    08:00 -1°C° 0 mm 1 mps 728 mmHg 94%
    09:00 -1°C° 0 mm 1 mps 728 mmHg 92%
    10:00 -1°C° 0 mm 1 mps 729 mmHg 90%
    11:00 0°C° 0 mm 1 mps 729 mmHg 87%
    12:00 0°C° 0 mm 1 mps 729 mmHg 85%
    13:00 0°C° 0 mm 1 mps 729 mmHg 84%
    14:00 -1°C° 0 mm 2 mps 729 mmHg 82%
    15:00 -2°C° 0 mm 2 mps 729 mmHg 84%
    16:00 -3°C° 0 mm 2 mps 729 mmHg 87%
    17:00 -3°C° 0 mm 2 mps 729 mmHg 89%
    18:00 -3°C° 0 mm 2 mps 729 mmHg 88%
    19:00 -3°C° 0 mm 2 mps 729 mmHg 88%
    20:00 -3°C° 0 mm 2 mps 729 mmHg 87%
    21:00 -4°C° 0 mm 3 mps 729 mmHg 87%
    22:00 -4°C° 0 mm 3 mps 729 mmHg 87%
    23:00 -2°C° 0 mm 3 mps 729 mmHg 87%

    2 February, Sunday

    Time Temperature Precipitation Wind Pressure Humidity
    00:00 -4°C° 0 mm 3 mps 728 mmHg 89%
    01:00 -4°C° 0 mm 4 mps 728 mmHg 91%
    02:00 -4°C° 0 mm 4 mps 728 mmHg 92%
    03:00 -3°C° 0 mm 4 mps 727 mmHg 92%
    04:00 -3°C° 0 mm 4 mps 727 mmHg 92%
    05:00 -4°C° 0 mm 5 mps 726 mmHg 91%
    06:00 -2°C° 0 mm 5 mps 726 mmHg 93%
    07:00 -2°C° 0 mm 5 mps 726 mmHg 94%
    08:00 -2°C° 0 mm 5 mps 725 mmHg 96%
    09:00 -1°C° 0.1 mm 5 mps 725 mmHg 96%
    10:00 -1°C° 0.1 mm 5 mps 724 mmHg 95%
    11:00 0°C° 0.1 mm 5 mps 724 mmHg 95%
    12:00 0°C° 0.5 mm 5 mps 723 mmHg 95%
    13:00 0°C° 0.5 mm 5 mps 723 mmHg 95%
    14:00 0°C° 0.5 mm 5 mps 722 mmHg 95%
    15:00 0°C° 0.9 mm 5 mps 722 mmHg 95%
    16:00 0°C° 0.9 mm 4 mps 722 mmHg 96%
    17:00 0°C° 0.9 mm 4 mps 721 mmHg 96%
    18:00 0°C° 0.5 mm 4 mps 722 mmHg 95%
    19:00 0°C° 0.5 mm 4 mps 722 mmHg 94%
    20:00 0°C° 0.5 mm 4 mps 722 mmHg 93%
    21:00 0°C° 0 mm 4 mps 722 mmHg 94%
    22:00 -1°C° 0 mm 4 mps 722 mmHg 95%
    23:00 -1°C° 0 mm 4 mps 722 mmHg 96%

    3 February, Monday

    Time Temperature Precipitation Wind Pressure Humidity
    00:00 -1°C° 0 mm 4 mps 722 mmHg 96%
    01:00 -1°C° 0 mm 4 mps 722 mmHg 96%
    02:00 -1°C° 0 mm 4 mps 722 mmHg 96%
    03:00 0°C° 0.1 mm 3 mps 722 mmHg 96%
    04:00 0°C° 0.1 mm 3 mps 722 mmHg 97%
    05:00 0°C° 0.1 mm 3 mps 721 mmHg 97%
    06:00 0°C° 0.1 mm 3 mps 721 mmHg 97%
    07:00 0°C° 0.1 mm 3 mps 721 mmHg 97%
    08:00 0°C° 0.1 mm 3 mps 721 mmHg 97%
    09:00 0°C° 0.1 mm 3 mps 722 mmHg 95%
    10:00 0°C° 0.1 mm 3 mps 722 mmHg 92%
    11:00 -1°C° 0.1 mm 4 mps 722 mmHg 89%
    12:00 -1°C° 0 mm 4 mps 723 mmHg 87%
    13:00 -1°C° 0 mm 4 mps 723 mmHg 85%
    14:00 -1°C° 0 mm 4 mps 723 mmHg 83%
    15:00 -2°C° 0 mm 4 mps 724 mmHg 85%
    16:00 -2°C° 0 mm 3 mps 724 mmHg 86%
    17:00 -4°C° 0 mm 3 mps 724 mmHg 88%
    18:00 -4°C° 0 mm 3 mps 725 mmHg 88%
    19:00 -4°C° 0 mm 3 mps 725 mmHg 88%
    20:00 -4°C° 0 mm 3 mps 725 mmHg 87%
    21:00 -4°C° 0 mm 3 mps 725 mmHg 88%
    22:00 -4°C° 0 mm 3 mps 725 mmHg 88%
    23:00 -4°C° 0 mm 3 mps 726 mmHg 89%
    Show more